Location: Banios
(43.0451°N, 0.2335°E)
Time: 10:59:05
(UTC+00:00)

Envisat - Pass Details

Date: 08 December 2021
Orbit: 764 x 766 km, 98.2° (Epoch: 28 January)

Event Time Altitude Azimuth Distance (km) Brightness Sun altitude
Rises 06:22:56 0° 358° (N) 3,243 6.0 -9.8°
Reaches altitude 10° 06:25:52 10° 341° (NNW) 2,312 5.1 -9.3°
Maximum altitude 06:29:19 19° 298° (WNW) 1,777 4.3 -8.7°
Drops below altitude 10° 06:32:46 10° 255° (WSW) 2,301 5.0 -8.1°
Sets 06:35:40 0° 237° (WSW) 3,222 5.9 -7.7°
